Simultaneous Nadir Overpasses (SNOs) Predictions

Prediction of SNOs between GOES-17 and NPP Satellite Orbit:

Table of predicted SNOs for the next 14.0 days since TLE Epoch: 9/7/2024
Index Date Time (GOES-17) GOES-17 Lat,Lon NPP Lat,Lon Distance(km) Time Diff (sec)
1 09/07/2024 20:39:57 0.01,-104.71 -0.95,-108.98 486.99 80
2 09/08/2024 20:23:51 0.01,-104.71 0.09,-104.45 30.10 80
3 09/11/2024 08:26:51 -0.02,-104.70 0.06,-105.18 54.20 80
4 09/12/2024 08:05:25 -0.02,-104.69 -0.93,-100.64 462.30 80
5 09/13/2024 20:27:19 0.03,-104.70 -0.24,-105.94 141.11 80
6 09/14/2024 20:11:12 0.03,-104.69 0.76,-101.40 375.75 80
7 09/16/2024 08:32:58 -0.03,-104.69 0.41,-106.66 224.57 80
8 09/17/2024 08:11:31 -0.03,-104.68 -0.60,-102.12 292.24 80
9 09/18/2024 20:33:25 0.03,-104.68 -0.59,-107.41 310.98 80
10 09/19/2024 20:17:18 0.03,-104.68 0.43,-102.87 206.29 80
